Mexicali, Mexico

6:05 AM PDT on June 28, 2017 (GMT -0700)
Gen Rodolfo Sanchez Taboada

Weather History for MMML - July, 2013

Change the Weather History Date:

Monday, July 1, 2013

  Actual Average Record
Temperature  
Mean Temperature 94 °F -  
Max Temperature 105 °F 104 °F 113 °F (1996)
Min Temperature 84 °F 76 °F 50 °F (2004)
Cooling Degree Days 30    
Growing Degree Days 44 (Base 50)    
Moisture  
Dew Point 65 °F    
Average Humidity 38    
Maximum Humidity 66    
Minimum Humidity 19    
Precipitation  
Precipitation 0.00 in - - ()
Sea Level Pressure  
Sea Level Pressure 29.72 in    
Wind  
Wind Speed 6 mph ()    
Max Wind Speed 14 mph    
Max Gust Speed -    
Visibility 10.0 miles    
Events      
Averages and records for this station are not official NWS values.
T = Trace of Precipitation, MM = Missing Value Source: Averaged Metar Reports

Daily Weather History Graph

Daily Weather History Graph

Search for Another Location

Airport or City:

Trip Planner

Search our weather history database for the weather conditions in past years. The results will help you decide how hot, cold, wet, or windy it might be!

Date:

Astronomy

Jul. 01, 2013 Rise Set
Actual Time 5:37 AM PDT 7:52 PM PDT
Civil Twilight 5:08 AM PDT 8:21 PM PDT
Nautical Twilight 4:33 AM PDT 8:55 PM PDT
Astronomical Twilight 3:56 AM PDT 9:33 PM PDT
Moon 12:56 AM PDT (7/1) 2:22 PM PDT (7/1)
Length of Visible Light 15h 12m
Length of Day
14h 15m
Waning Crescent, 34% of the Moon is Illuminated
Jul 1
Waning Crescent
Jul 8
New
Jul 15
First Quarter
Jul 22
Full
Jul 29
Last Quarter

Hourly Weather History & Observations

Time (PDT) Temp. Heat Index Dew Point Humidity Pressure Visibility Wind Dir Wind Speed Gust Speed Precip Events Conditions
12:43 AM 86.0 °F 89.4 °F 68.0 °F 55% 29.68 in 10.0 mi SE 12.7 mph - N/A   Partly Cloudy
5:40 AM 84.2 °F 89.6 °F 71.6 °F 66% 29.72 in 10.0 mi SE 4.6 mph - N/A   Mostly Cloudy
6:41 AM 86.0 °F 91.8 °F 71.6 °F 62% 29.74 in 10.0 mi West 6.9 mph - N/A   Mostly Cloudy
7:44 AM 86.0 °F 91.8 °F 71.6 °F 62% 29.75 in 10.0 mi West 6.9 mph - N/A   Mostly Cloudy
8:47 AM 89.6 °F 94.7 °F 69.8 °F 52% 29.76 in 10.0 mi NNW 4.6 mph - N/A   Mostly Cloudy
9:46 AM 91.4 °F 96.8 °F 69.8 °F 49% 29.78 in 10.0 mi NNE 4.6 mph - N/A   Mostly Cloudy
10:50 AM 95.0 °F 101.3 °F 69.8 °F 44% 29.79 in 10.0 mi Calm Calm - N/A   Mostly Cloudy
11:40 AM 98.6 °F 101.0 °F 64.4 °F 32% 29.76 in 10.0 mi South 6.9 mph - N/A   Mostly Cloudy
12:41 PM 102.2 °F 103.6 °F 60.8 °F 26% 29.75 in 10.0 mi SE 6.9 mph - N/A   Mostly Cloudy
1:42 PM 105.8 °F 104.9 °F 55.4 °F 19% 29.73 in 10.0 mi SSE 5.8 mph - N/A   Mostly Cloudy
2:44 PM 105.8 °F 104.9 °F 55.4 °F 19% 29.71 in 10.0 mi SSE 8.1 mph - N/A   Mostly Cloudy
3:50 PM 105.8 °F 108.3 °F 62.6 °F 24% 29.69 in 10.0 mi SSE 13.8 mph - N/A   Mostly Cloudy
4:46 PM 105.8 °F 107.5 °F 60.8 °F 23% 29.69 in 10.0 mi SSE 10.4 mph - N/A   Scattered Clouds
5:49 PM 104.0 °F 106.6 °F 62.6 °F 26% 29.66 in 10.0 mi SSE 9.2 mph - N/A   Partly Cloudy
6:44 PM 104.0 °F 108.9 °F 66.2 °F 29% 29.66 in 10.0 mi Calm Calm - N/A   Clear
7:40 PM 98.6 °F 101.0 °F 64.4 °F 32% 29.69 in 10.0 mi Calm Calm - N/A   Clear
8:41 PM 95.0 °F 96.0 °F 62.6 °F 34% 29.69 in 10.0 mi SE 5.8 mph - N/A   Clear
9:41 PM 93.2 °F 94.1 °F 62.6 °F 36% 29.71 in 10.0 mi Calm Calm - N/A   Clear
10:40 PM 93.2 °F 93.3 °F 60.8 °F 34% 29.75 in 10.0 mi Calm Calm - N/A   Clear
11:40 PM 89.6 °F 90.1 °F 62.6 °F 40% 29.73 in 10.0 mi Calm Calm - N/A   Clear